Weather History for Dallas Redbird, TX

Change the Weather History Date:

Sunday, April 27, 2014

  Actual Average Record
Temperature  
Mean Temperature 82 °F -  
Max Temperature 91 °F 76 °F 91 °F (2014)
Min Temperature 73 °F 57 °F 48 °F (2006)
Cooling Degree Days 17    
Growing Degree Days 32 (Base 50)    
Moisture  
Dew Point 57 °F    
Average Humidity 52    
Maximum Humidity 84    
Minimum Humidity 16    
Precipitation  
Precipitation 0.02 in - - ()
Sea Level Pressure  
Sea Level Pressure 29.49 in    
Wind  
Wind Speed 12 mph (SSW)    
Max Wind Speed 18 mph    
Max Gust Speed 28 mph    
Visibility 8 miles    
Events      
Averages and records for this station are not official NWS values.
T = Trace of Precipitation, MM = Missing Value Source: NWS Daily Summary

Daily Weather History Graph

Daily Weather History Graph

Search for Another Location

Airport:

Trip Planner

Search our weather history database for the weather conditions in past years. The results will help you decide how hot, cold, wet, or windy it might be!

Date:

Astronomy

Apr. 27, 2014 Rise Set
Actual Time 6:44 AM CDT 8:06 PM CDT
Civil Twilight 6:18 AM CDT 8:32 PM CDT
Nautical Twilight 5:47 AM CDT 9:03 PM CDT
Astronomical Twilight 5:15 AM CDT 9:35 PM CDT
Moon 5:39 AM CDT (4/27) 6:45 PM CDT (4/27)
Length of Visible Light 14h 13m
Length of Day
13h 21m
Waning Crescent, 3% of the Moon is Illuminated
Apr 27
Waning Crescent
Apr 29
New
May 6
First Quarter
May 14
Full
May 21
Last Quarter

Hourly Weather History & Observations

Time (CDT) Temp. Heat Index Dew Point Humidity Pressure Visibility Wind Dir Wind Speed Gust Speed Precip Events Conditions
12:53 AM 73.9 °F - 66.9 °F 79% 29.62 in 8.0 mi SSE 13.8 mph 23.0 mph N/A   Overcast
1:53 AM 73.0 °F - 66.0 °F 79% 29.60 in 10.0 mi SSE 18.4 mph 26.5 mph N/A   Overcast
2:53 AM 73.9 °F - 66.0 °F 76% 29.57 in 8.0 mi SSE 18.4 mph 27.6 mph N/A   Overcast
3:53 AM 73.9 °F - 66.0 °F 76% 29.55 in 8.0 mi South 15.0 mph 25.3 mph N/A   Overcast
4:53 AM 73.9 °F - 66.0 °F 76% 29.53 in 8.0 mi SSE 12.7 mph 24.2 mph N/A   Overcast
5:53 AM 73.9 °F - 66.9 °F 79% 29.52 in 8.0 mi South 10.4 mph 21.9 mph N/A   Overcast
7:53 AM 75.0 °F - 66.9 °F 76% 29.51 in 6.0 mi South 17.3 mph 27.6 mph N/A   Haze
8:53 AM 75.9 °F - 68.0 °F 76% 29.54 in 6.0 mi SSW 11.5 mph 21.9 mph N/A   Haze
9:53 AM 75.0 °F - 70.0 °F 84% 29.52 in 4.0 mi South 9.2 mph 18.4 mph 0.02 in   Haze
11:53 AM 82.0 °F 85.5 °F 69.1 °F 65% 29.52 in 6.0 mi South 9.2 mph 21.9 mph N/A   Haze
12:53 PM 84.0 °F 87.0 °F 68.0 °F 58% 29.49 in 7.0 mi Variable 6.9 mph 19.6 mph N/A   Mostly Cloudy
1:53 PM 84.9 °F 88.2 °F 68.0 °F 57% 29.47 in 7.0 mi South 6.9 mph - N/A   Scattered Clouds
3:53 PM 91.0 °F - 46.9 °F 22% 29.42 in 10.0 mi WSW 12.7 mph 16.1 mph N/A   Clear
4:53 PM 91.0 °F - 42.1 °F 18% 29.39 in 10.0 mi West 10.4 mph 17.3 mph N/A   Clear
5:53 PM 91.0 °F - 39.0 °F 16% 29.38 in 10.0 mi SW 6.9 mph 18.4 mph N/A   Clear
6:53 PM 89.1 °F - 42.1 °F 19% 29.37 in 10.0 mi South 8.1 mph 18.4 mph N/A   Clear
7:53 PM 86.0 °F - 43.0 °F 22% 29.40 in 10.0 mi South 5.8 mph - N/A   Clear
8:53 PM 82.0 °F - 43.0 °F 25% 29.44 in 10.0 mi Variable 3.5 mph - N/A   Clear
9:53 PM 77.0 °F - 43.0 °F 30% 29.46 in 10.0 mi WSW 4.6 mph - N/A   Clear
10:53 PM 77.0 °F - 42.1 °F 29% 29.48 in 10.0 mi SSW 4.6 mph - N/A   Clear
11:53 PM 75.9 °F - 37.9 °F 25% 29.49 in 10.0 mi SW 4.6 mph - N/A   Mostly Cloudy